Theta_e
343 344 345 345 344 345 345 343 342 341 340 338 338 337 336 334 333 333 334 338 344 345 346 349 353 359 360 358 355 353 351 350 350 351 351 351 351 352 352 352 351 351 350
343 342 343 343 343 344 344 344 342 340 339 337 336 336 336 336 339 339 339 339 342 343 344 345 347 351 354 356 356 355 353 351 351 350 349 349 350 351 352 353 352 351 350
344 343 342 342 343 344 343 342 341 339 337 337 336 336 336 337 339 340 339 338 339 343 343 345 347 348 350 352 352 352 351 351 351 350 349 349 349 349 351 352 352 351 350
344 341 341 342 343 343 342 341 339 337 336 335 335 336 340 340 340 340 338 338 338 338 340 344 346 348 350 352 354 355 354 351 350 350 349 349 349 348 349 351 351 351 350
346 342 343 343 343 340 340 338 334 335 334 331 330 331 332 335 336 337 337 338 338 339 338 339 342 343 345 345 348 349 352 352 351 350 350 349 349 349 348 349 350 350 350
345 343 341 340 340 337 336 334 332 330 330 329 329 330 332 333 334 335 334 335 336 336 336 337 338 336 339 342 343 345 349 351 351 351 349 349 348 349 349 349 349 349 350
343 338 337 336 334 333 332 330 328 327 328 327 326 326 324 327 327 329 332 331 330 331 331 334 336 337 338 340 342 343 345 349 351 351 348 346 347 348 348 349 349 349 349
338 337 333 333 332 330 328 327 326 323 323 324 323 318 315 318 319 324 327 327 328 329 330 332 335 337 338 337 335 339 345 345 346 347 346 340 345 346 348 348 348 348 348
337 334 332 330 329 327 326 325 325 324 322 320 320 320 314 311 315 320 324 324 326 327 329 332 333 335 336 336 336 336 339 339 345 346 339 336 336 346 346 348 348 347 348
329 334 334 333 332 331 329 329 327 325 320 317 319 319 319 319 314 313 320 324 328 328 329 329 331 333 335 335 336 338 338 340 343 343 343 337 336 340 348 347 347 347 347
320 319 319 318 317 317 318 318 319 321 322 321 319 320 320 321 320 316 314 319 325 328 328 329 330 332 336 337 336 336 335 336 337 337 339 342 337 342 346 347 347 347 348
314 316 316 315 315 314 314 314 314 315 314 315 316 317 317 316 316 314 313 313 314 318 323 325 327 328 331 332 334 334 333 331 330 330 331 334 338 340 341 343 347 349 349
311 312 313 313 313 314 313 311 311 311 311 310 310 310 312 311 312 312 310 308 308 311 314 318 321 324 325 329 328 330 330 328 326 325 326 327 330 333 335 338 343 345 346
310 312 311 311 310 310 310 308 307 307 308 306 306 306 305 307 309 310 308 305 300 303 307 310 315 316 319 321 320 323 325 325 325 323 322 323 325 327 329 331 335 337 338
311 310 309 308 308 308 308 308 306 306 306 306 306 305 304 306 307 307 308 307 303 296 298 304 306 316 311 313 315 318 318 320 323 322 322 322 323 323 324 325 327 330 331
309 308 308 307 307 307 307 307 306 306 305 305 306 306 306 305 305 305 305 305 304 302 298 303 304 307 309 308 310 311 312 316 314 317 320 322 321 321 322 323 323 325 327
308 307 307 307 307 307 308 307 306 306 306 306 306 306 306 307 305 305 304 304 303 303 299 302 305 307 306 306 308 310 312 314 315 316 317 319 319 318 319 319 320 322 324
307 306 307 307 307 307 307 306 305 306 305 305 306 306 305 307 307 306 305 304 304 304 301 299 303 304 304 306 307 308 308 308 311 314 315 316 315 315 316 317 317 318 319
306 306 306 306 306 306 306 306 306 305 305 306 306 306 306 306 305 305 305 304 304 304 304 301 300 304 304 306 305 307 306 310 310 311 311 311 313 315 317 317 316 315 313
304 305 305 305 305 305 305 306 306 307 306 306 307 307 307 306 306 305 305 305 305 303 303 302 301 301 302 305 305 303 302 304 304 307 308 308 310 313 316 317 317 317 312
303 303 303 304 304 304 306 305 305 303 302 303 303 304 306 307 309 309 307 306 306 304 303 301 300 301 302 302 302 303 300 301 303 305 305 309 314 321 326 317 321 320 312
301 302 302 303 303 304 301 302 301 299 299 299 299 301 303 305 306 306 307 307 307 304 303 303 302 300 301 304 305 302 301 299 298 308 305 303 309 313 323 326 316 313 311
299 300 301 302 303 302 299 297 298 297 297 298 298 299 300 302 303 303 303 304 305 305 306 305 302 303 302 304 305 303 302 301 301 304 304 302 307 309 318 324 312 310 309
299 299 301 303 301 300 297 295 296 296 295 297 297 298 298 299 301 301 301 301 302 303 304 305 305 305 306 307 306 303 303 303 303 303 306 301 308 309 319 328 311 309 307
299 301 300 299 297 295 295 294 294 294 294 294 296 297 298 299 299 297 299 299 301 304 306 304 302 301 300 300 303 303 300 298 298 302 307 306 308 310 319 321 317 308 306
297 298 297 295 294 293 293 293 293 292 291 292 294 297 298 298 296 295 297 299 298 300 304 304 304 304 301 303 301 303 302 299 300 300 308 305 309 313 315 316 315 312 310
Wind_Speed
5 5 3 4 4 3 3 3 3 2 3 4 5 6 6 6 5 3 2 2 4 6 6 6 11 13 13 14 13 13 15 16 16 17 16 16 16 16 17 17 17 17 17
5 4 3 4 2 3 3 5 5 5 4 4 5 4 5 3 3 3 3 3 6 6 6 6 8 11 11 13 12 13 14 16 17 17 19 17 17 17 17 17 18 17 17
6 4 4 2 3 3 5 4 2 1 1 1 4 4 5 7 6 6 6 5 6 11 12 12 11 10 12 16 16 16 15 14 15 16 17 19 17 18 17 18 18 19 17
6 6 4 3 2 4 4 3 3 3 3 3 3 5 4 4 5 7 6 6 6 6 7 13 14 14 14 15 16 15 14 15 14 13 15 18 19 17 17 17 19 18 18
7 4 4 5 5 4 3 3 1 1 3 3 4 4 5 6 7 6 9 8 8 7 5 10 12 14 15 16 18 18 17 18 14 12 15 17 19 16 16 18 19 18 19
6 5 4 5 5 3 3 2 2 3 1 3 4 6 6 6 6 7 8 6 7 7 6 7 6 8 14 17 18 20 21 19 16 12 15 15 19 10 16 19 17 18 17
4 6 3 3 3 4 3 3 2 2 1 1 2 3 3 6 6 5 5 6 7 7 5 5 5 6 7 16 16 18 23 22 14 15 16 9 11 11 17 19 18 17 16
2 5 4 3 3 3 3 2 1 1 0 1 1 1 4 5 3 2 3 4 7 6 7 7 8 8 7 6 10 12 12 15 17 18 13 14 12 19 21 17 14 16 15
6 4 4 3 4 3 3 2 1 1 1 1 2 1 2 4 4 2 3 4 5 6 5 7 9 9 8 8 9 11 11 17 19 25 11 5 19 18 15 12 13 15 16
7 7 6 6 5 4 4 2 2 0 1 1 2 1 3 2 3 7 2 5 6 7 7 6 7 8 8 7 11 14 14 12 17 18 21 18 18 17 13 13 13 14 15
9 10 9 8 7 5 5 5 4 4 1 1 0 2 2 3 7 7 10 12 6 5 6 6 6 7 8 8 9 9 14 15 15 18 14 15 19 26 19 16 16 13 16
6 7 7 6 6 5 5 4 4 5 4 3 2 3 3 3 3 4 7 9 13 10 8 7 9 7 7 7 10 14 13 13 14 13 16 15 15 17 16 18 17 14 15
3 5 5 6 5 5 5 5 4 4 3 2 3 3 2 4 4 6 7 9 9 10 9 9 8 7 8 7 8 12 14 11 11 12 10 12 12 14 17 17 15 13 14
4 5 5 5 6 5 3 3 2 2 2 3 5 4 5 5 5 5 5 7 12 10 10 12 7 8 8 7 13 17 10 11 11 11 11 12 12 11 15 15 15 13 12
3 4 4 5 4 4 4 4 3 4 4 4 6 6 5 6 6 6 5 6 8 12 12 8 9 5 8 10 13 14 14 18 15 14 13 12 12 12 13 16 15 14 15
3 4 4 4 4 4 4 4 4 5 6 5 5 7 7 7 7 7 7 8 8 10 13 9 11 11 9 10 12 14 15 24 25 22 20 14 12 13 12 17 17 17 18
3 4 4 4 4 4 4 4 5 6 6 7 7 8 9 9 8 8 7 8 9 9 13 10 10 11 12 11 11 11 13 12 12 19 21 19 13 13 15 14 17 18 17
1 1 1 3 4 5 5 5 6 7 7 8 10 9 11 8 9 9 8 11 10 11 11 16 11 10 12 11 12 13 11 12 12 18 20 17 20 21 16 18 15 14 14
2 1 2 4 5 5 6 6 6 7 8 8 9 10 12 11 12 10 10 10 10 9 11 11 11 10 9 9 11 10 12 11 11 21 20 19 19 17 14 17 14 13 13
2 3 3 4 5 6 6 6 7 8 9 9 10 11 13 13 14 13 11 12 11 10 11 11 11 11 10 9 8 10 10 9 10 11 16 18 20 21 20 17 14 15 14
3 3 4 5 5 4 5 8 8 8 10 11 11 12 12 16 23 19 12 13 13 11 10 10 11 10 9 9 10 6 9 10 10 11 11 10 9 9 9 11 10 16 11
4 4 4 4 5 5 8 9 11 9 11 11 12 13 13 18 14 18 20 21 19 15 16 13 12 12 14 10 9 9 9 9 7 4 6 12 7 10 9 5 8 8 10
4 4 5 5 6 6 9 12 16 10 10 10 11 12 13 11 16 12 17 21 21 23 22 17 17 15 15 13 10 12 10 8 10 10 9 11 6 11 8 6 10 13 11
4 4 4 4 5 5 12 12 17 11 10 11 11 13 13 14 13 15 16 19 18 16 15 13 15 16 16 13 10 10 10 9 9 10 8 9 7 9 8 6 10 9 8
3 5 5 7 7 8 12 13 15 11 11 12 12 13 13 14 18 18 17 16 15 14 13 20 22 23 16 15 11 4 7 6 8 8 6 9 5 7 5 3 2 4 3
5 4 6 7 10 9 12 13 15 9 11 10 12 12 12 12 18 23 15 13 13 15 14 12 10 10 14 14 14 12 8 7 7 5 4 6 6 5 4 0 1 2 2
Wind_Direction
183 157 196 217 180 199 214 214 215 236 269 272 265 262 267 268 270 276 272 291 342 332 301 268 270 262 241 235 234 240 246 250 252 252 247 238 237 237 231 231 230 231 233
202 157 143 222 196 206 203 213 207 203 225 235 245 237 245 237 265 232 238 249 269 290 305 304 269 259 256 254 240 237 236 235 238 245 250 241 239 238 237 232 233 230 232
162 158 161 218 217 208 219 237 190 209 175 197 233 229 240 235 235 249 256 246 247 233 236 248 249 249 250 257 256 252 249 245 234 236 242 249 236 240 238 237 228 232 229
157 183 155 235 206 232 161 157 164 144 191 218 230 244 257 270 268 263 276 272 267 268 272 274 269 270 260 258 261 263 266 263 246 239 237 240 246 229 241 238 236 229 233
143 154 182 200 173 179 140 162 149 162 218 244 272 276 260 258 255 260 266 268 271 266 268 279 273 270 264 274 275 278 272 259 255 252 243 238 241 233 245 236 241 232 227
146 153 165 195 168 142 157 155 194 222 242 257 275 277 271 267 262 259 274 275 264 274 287 284 284 295 293 270 268 271 270 268 262 252 253 236 231 252 247 246 243 243 233
164 122 158 180 155 171 176 149 160 213 290 265 314 297 283 261 270 269 263 273 291 290 302 294 287 280 287 283 265 266 276 275 275 261 249 292 311 333 262 251 239 244 241
10 130 177 169 161 120 118 140 113 127 307 348 287 280 314 324 321 280 289 291 292 303 300 292 285 281 276 264 267 251 280 293 296 303 323 4 323 259 240 240 241 244 238
113 132 127 123 118 106 118 136 138 81 311 329 246 196 298 260 327 329 311 317 317 311 309 302 298 295 291 282 280 284 272 286 325 328 320 253 268 244 246 239 242 246 242
83 102 114 107 100 88 78 70 102 163 153 267 312 276 262 266 294 314 258 304 300 303 316 307 291 288 289 288 287 288 284 291 287 259 270 281 277 281 270 249 247 244 241
76 73 70 70 71 69 72 63 52 51 50 356 353 322 276 237 237 255 283 297 284 292 323 310 295 289 280 281 291 288 276 269 279 293 286 252 264 277 288 271 254 240 240
61 61 70 72 70 63 55 45 39 40 29 19 348 310 294 315 349 303 294 293 295 304 294 293 291 312 300 285 281 284 293 300 294 295 300 295 280 273 273 273 266 250 239
60 56 57 53 55 53 51 50 38 28 18 350 332 306 278 278 286 286 292 293 285 294 293 289 284 302 312 323 342 334 326 313 309 306 296 285 276 275 271 267 258 258 247
55 57 61 59 54 46 34 34 9 336 333 315 298 288 291 281 278 273 285 299 298 286 285 287 293 293 291 319 317 319 313 309 311 313 304 300 303 279 286 277 260 254 251
101 85 71 58 43 25 12 5 341 322 320 306 294 287 281 282 282 278 269 265 276 295 294 297 297 309 315 307 301 306 305 302 306 291 290 287 291 298 277 286 267 254 245
95 68 48 35 17 5 350 334 309 299 296 294 291 282 285 284 284 276 269 266 261 272 283 294 285 287 286 285 290 295 295 298 299 293 298 292 293 290 281 271 268 255 246
69 38 20 359 340 324 314 301 289 289 288 290 281 274 276 268 267 267 261 263 267 268 276 280 274 286 285 282 283 283 280 285 289 288 294 292 291 287 286 269 258 250 238
57 343 340 328 314 306 303 297 298 299 295 288 287 286 282 282 275 271 267 267 264 266 269 279 282 283 276 279 277 284 287 289 285 288 289 299 294 287 285 285 265 243 238
106 20 339 315 305 308 308 307 301 297 291 292 290 295 293 289 285 284 277 274 272 267 265 268 272 276 280 284 282 270 278 282 286 290 289 288 283 275 280 276 260 238 233
22 346 332 314 314 318 315 316 314 312 309 297 291 287 287 285 281 288 281 273 273 271 267 269 278 278 271 268 264 284 287 285 293 296 292 285 279 278 273 261 236 224 221
345 328 325 326 332 331 339 341 335 327 315 309 303 299 291 286 288 287 287 285 281 276 273 273 272 270 259 263 263 278 280 294 295 286 290 299 293 285 261 242 228 225 201
333 333 337 342 342 349 345 357 349 329 318 307 309 309 297 303 303 304 300 295 285 282 276 274 271 265 263 258 267 269 280 293 310 280 338 309 317 301 314 238 203 215 201
319 331 336 350 350 353 7 357 349 328 313 308 305 304 306 310 312 307 306 298 289 280 264 266 264 258 261 250 261 272 267 263 270 285 306 293 309 288 284 281 195 193 203
335 336 341 4 6 5 2 355 345 332 316 310 311 304 301 307 309 309 311 300 288 279 270 265 262 258 254 256 241 243 265 275 274 275 275 277 297 276 277 252 198 188 192
344 2 32 16 5 353 351 346 348 333 321 318 316 310 308 309 309 315 315 306 298 288 281 270 261 261 250 238 239 204 233 244 267 275 239 256 273 275 271 247 111 68 211
358 359 19 13 5 350 343 344 353 332 324 323 319 317 312 312 320 326 321 319 323 314 299 299 285 265 243 244 231 223 228 231 246 282 250 221 265 251 261 153 125 83 104